Starlink 5185

operational
NORAD ID: 54100 Int'l Des: 2022-136 Owner: SPXS Country: US Constellation: starlink
LEOCIRCULAR

Über Starlink 5185

Beschreibung wird geladen...

Live-Position

3D-Globus wird geladen...

Nächste Überflüge

Höhenverlauf

Altitude vs Time

uPlot chart will show altitude changes over time

Zweizeiliger Elementsatz

1 54100U 22136BB 25259.64722598 -.00014273 00000-0 -87874-3 0 9996
2 54100 53.2189 35.1395 0000928 92.5007 267.6092 15.08910745160715
Epoch: 16. Sept. 2025 • Age: 33 hours

Aktueller Status

Höhe 543.9 km
Geschwindigkeit 7.59 km/s
Subsatellitenpunkt -15.41°S, 139.42°W
Startdatum 20. Okt. 2022
Alter 2.9 years
Typ internet

Technische Details

Klassifizierung Payload
Masse 305.00 kg
Trockenmasse 290.00 kg
Gesamtmasse 305.00 kg
Länge 0.20 m
Durchmesser 2.80 m
Spannweite 9.00 m
Form Box + pan
Hersteller SPXS
Bus-Typ Starlink
Phasenstatus In Orbit
Besitzer/Staat SPXS/US

Große Konstellationen

Loading constellations...